Location: ??????
(42.0089°N, 44.3281°E)
Time: 11:04:19
(UTC+00:00)

Cosmos 2251 Rocket - Pass Details

Date: 06 June 2022
Orbit: 764 x 791 km, 74.0° (Epoch: 01 July)

Event Time Altitude Azimuth Distance (km) Brightness Sun altitude
Rises 20:54:05 0° 347° (NNW) 3,257 8.0 -25.3°
Reaches altitude 10° 20:56:38 10° 355° (N) 2,330 7.0 -25.3°
Maximum altitude 21:01:34 38° 64° (ENE) 1,171 4.6 -25.3°
Enters shadow 21:03:12 31° 102° (ESE) 1,353 4.6 -25.3°
